Location: Zlin
(49.2330°N, 17.6670°E)
Time: 13:13:06
(UTC+02:00)

ISS - Visible Passes

Search period start: 20 April 2014 00:00
Search period end: 30 April 2014 00:00
Orbit: 414 x 419 km, 51.6° (Epoch: 20 April)

Date Brightness Start Highest point End Pass type
(mag) Time Alt. Az. Time Alt. Az. Time Alt. Az.
20 Apr -2.1 21:16:58 10° W 21:20:02 33° SSW 21:21:33 22° SSE visible
21 Apr -2.6 20:28:23 10° WNW 20:31:39 48° SSW 20:34:53 10° SE visible
22 Apr -0.9 21:17:19 10° W 21:19:25 16° SW 21:21:24 11° S visible
23 Apr -1.4 20:28:16 10° W 20:31:01 24° SW 20:33:45 10° SSE visible
